Weather History for Poughkeepsie, NY

Change the Weather History Date:

Wednesday, May 1, 2013

  Actual Average Record
Temperature  
Mean Temperature 54 °F 54 °F  
Max Temperature 73 °F 67 °F 88 °F (2010)
Min Temperature 35 °F 42 °F 26 °F (2008)
Degree Days  
Heating Degree Days 11 11  
Month to date heating degree days 11 11  
Since 1 July heating degree days 5479 5950  
Cooling Degree Days 0 0  
Month to date cooling degree days 0 0  
Year to date cooling degree days 0 5  
Growing Degree Days 5 (Base 50)    
Moisture  
Dew Point 34 °F    
Average Humidity 51    
Maximum Humidity 82    
Minimum Humidity 20    
Precipitation  
Precipitation 0.00 in 0.12 in 0.87 in (1953)
Month to date precipitation 0.00 0.12  
Year to date precipitation 6.46 13.21  
Sea Level Pressure  
Sea Level Pressure 30.40 in    
Wind  
Wind Speed 3 mph (SE)    
Max Wind Speed 13 mph    
Max Gust Speed 17 mph    
Visibility 10 miles    
Events      
T = Trace of Precipitation, MM = Missing Value Source: NWS Daily Summary

Daily Weather History Graph

Daily Weather History Graph

Search for Another Location

Airport:

Trip Planner

Search our weather history database for the weather conditions in past years. The results will help you decide how hot, cold, wet, or windy it might be!

Date:

Astronomy

May. 01, 2013 Rise Set
Actual Time 5:52 AM EDT 7:53 PM EDT
Civil Twilight 5:21 AM EDT 8:24 PM EDT
Nautical Twilight 4:44 AM EDT 9:01 PM EDT
Astronomical Twilight 4:04 AM EDT 9:41 PM EDT
Moon 1:01 AM EDT 11:27 AM EDT
Length of Visible Light 15h 02m
Length of Day
14h 01m
Waning Gibbous, 59% of the Moon is Illuminated
May 1
Waning Gibbous
May 2
Last Quarter
May 9
New
May 18
First Quarter
May 25
Full

Hourly Weather History & Observations

Time (EDT) Temp. Dew Point Humidity Pressure Visibility Wind Dir Wind Speed Gust Speed Precip Events Conditions
1:53 AM 43.0 °F 32.0 °F 65% 30.35 in 10.0 mi Calm Calm - N/A   Clear
2:53 AM 41.0 °F 33.1 °F 73% 30.35 in 10.0 mi Calm Calm - N/A   Clear
3:53 AM 39.9 °F 30.9 °F 70% 30.36 in 10.0 mi Calm Calm - N/A   Clear
4:53 AM 37.9 °F 32.0 °F 79% 30.38 in 10.0 mi Calm Calm - N/A   Clear
5:53 AM 37.0 °F 32.0 °F 82% 30.38 in 10.0 mi Calm Calm - N/A   Clear
6:53 AM 39.0 °F 34.0 °F 82% 30.41 in 10.0 mi Calm Calm - N/A   Clear
7:53 AM 46.9 °F 34.0 °F 61% 30.43 in 10.0 mi Calm Calm - N/A   Clear
8:53 AM 55.0 °F 34.0 °F 45% 30.43 in 10.0 mi Calm Calm - N/A   Clear
9:53 AM 61.0 °F 30.9 °F 32% 30.43 in 10.0 mi Calm Calm - N/A   Clear
10:53 AM 64.9 °F 30.0 °F 27% 30.43 in 10.0 mi ESE 4.6 mph - N/A   Clear
11:53 AM 69.1 °F 28.9 °F 22% 30.40 in 10.0 mi NNE 11.5 mph - N/A   Clear
12:53 PM 71.1 °F 32.0 °F 24% 30.39 in 10.0 mi East 10.4 mph - N/A   Clear
1:53 PM 71.1 °F 32.0 °F 24% 30.38 in 10.0 mi Variable 4.6 mph - N/A   Clear
2:53 PM 72.0 °F 30.0 °F 21% 30.38 in 10.0 mi South 5.8 mph - N/A   Clear
3:53 PM 73.0 °F 30.0 °F 20% 30.36 in 10.0 mi Variable 3.5 mph - N/A   Clear
4:53 PM 72.0 °F 37.9 °F 29% 30.37 in 10.0 mi SSE 5.8 mph - N/A   Clear
5:53 PM 70.0 °F 37.0 °F 30% 30.38 in 10.0 mi Variable 6.9 mph - N/A   Clear
7:53 PM 64.9 °F 36.0 °F 34% 30.41 in 10.0 mi SSE 5.8 mph - N/A   Clear
8:53 PM 60.1 °F 37.0 °F 42% 30.43 in 10.0 mi Calm Calm - N/A   Clear
9:53 PM 57.9 °F 42.1 °F 56% 30.45 in 10.0 mi SE 6.9 mph - N/A   Clear
10:53 PM 55.0 °F 42.1 °F 62% 30.46 in 10.0 mi SE 5.8 mph - N/A   Clear
11:53 PM 53.1 °F 42.1 °F 66% 30.47 in 10.0 mi Calm Calm - N/A   Clear